FW0097 Weather Reports


time (UTC)temp
F
wind
direction
speed
knots
gust
knots
rain 1hr
in
rain 24hr
in
rain mn
in
humidity
%
barometer
mb
20240527193015 63 82 0.0 0.9 0.00 0.01 0.00 69 1016.5
20240527191508 64 74 0.0 0.0 0.00 0.01 0.00 69 1016.5
20240527190002 65 78 0.0 0.0 0.00 0.01 0.00 69 1016.4
20240527184501 66 74 0.0 0.0 0.00 0.01 0.00 67 1016.3
20240527183111 67 86 0.0 0.9 0.00 0.01 0.00 62 1016.3
20240527181600 69 63 0.0 0.9 0.00 0.01 0.00 61 1016.3
20240527180105 70 104 0.0 0.0 0.00 0.01 0.00 58 1016.4
20240527174602 73 113 0.0 0.0 0.00 0.01 0.00 53 1016.5
20240527173105 75 126 0.0 0.0 0.00 0.01 0.00 49 1016.5
20240527171615 76 151 0.0 0.0 0.00 0.13 0.00 43 1016.4
20240527170025 77 184 0.0 0.0 0.00 0.13 0.00 43 1016.5
20240527163022 77 149 0.0 0.9 0.00 0.13 0.00 41 1016.5
20240527161521 77 166 0.0 2.6 0.00 0.24 0.00 39 1016.6
20240527160025 77 165 0.0 1.7 0.00 0.24 0.00 39 1016.5
20240527154520 77 159 0.0 0.9 0.00 0.24 0.00 41 1016.5
20240527153021 78 168 0.0 7.8 0.00 0.24 0.00 39 1016.6
20240527151516 78 137 0.0 0.9 0.00 0.28 0.00 39 1016.8
20240527150014 77 217 0.0 6.1 0.00 0.28 0.00 40 1016.8
20240527144511 77 173 0.0 8.7 0.00 0.28 0.00 40 1016.9
20240527143008 77 157 0.0 8.7 0.00 0.28 0.00 40 1017.0
20240527141508 77 159 1.7 10.4 0.00 0.40 0.00 41 1017.0
20240527140006 77 190 0.0 8.7 0.00 0.40 0.00 43 1017.1
20240527134505 77 153 0.0 7.8 0.00 0.40 0.00 43 1017.2
20240527133002 77 154 1.7 7.8 0.00 0.40 0.00 44 1017.4
20240527131604 77 161 0.0 4.3 0.00 0.40 0.00 44 1017.4
20240527130058 77 177 0.0 7.8 0.00 0.40 0.00 45 1017.7
20240527124557 77 117 0.0 10.4 0.00 0.40 0.00 46 1017.7
20240527123053 77 153 0.0 3.5 0.00 0.40 0.00 45 1017.9
20240527121551 77 180 1.7 9.6 0.00 0.40 0.00 46 1018.1
20240527120051 77 153 1.7 8.7 0.00 0.40 0.00 43 1018.1
20240527114549 77 128 0.9 7.8 0.00 0.40 0.00 43 1018.3
20240527113048 77 173 0.0 7.0 0.00 0.40 0.00 43 1018.5
20240527111546 77 142 0.0 4.3 0.00 0.40 0.00 45 1018.6
20240527110042 77 178 0.0 8.7 0.00 0.40 0.00 44 1018.7
20240527104539 77 157 0.0 2.6 0.00 0.40 0.00 49 1018.9
20240527103039 77 110 0.0 5.2 0.00 0.40 0.00 51 1019.0
20240527101534 76 147 0.0 6.1 0.00 0.40 0.00 51 1019.1
20240527100032 75 174 0.9 7.8 0.00 0.40 0.00 51 1019.1
20240527094527 76 178 0.0 6.1 0.00 0.40 0.00 55 1019.2
20240527093124 74 244 0.0 2.6 0.00 0.40 0.00 58 1019.3
20240527091520 75 198 0.0 0.0 0.00 0.40 0.00 58 1019.4
20240527090020 75 178 0.0 0.0 0.00 0.40 0.00 58 1019.5
20240527084511 73 61 0.0 0.0 0.00 0.40 0.00 63 1019.5
20240527083008 71 65 0.0 0.0 0.00 0.40 0.00 69 1019.6
20240527081503 69 36 0.0 0.0 0.00 0.40 0.00 71 1019.7
20240527080059 68 360 0.0 0.0 0.00 0.40 0.00 74 1019.8
20240527074526 66 64 0.0 0.0 0.00 0.40 0.00 76 1019.9
20240527073023 66 360 0.0 0.0 0.00 0.40 0.00 76 1020.1
20240527071533 64 42 0.0 0.0 0.00 0.40 0.40 78 1020.1
20240527070019 63 60 0.0 0.0 0.00 0.40 0.40 79 1020.1
20240527064519 62 56 0.0 0.0 0.00 0.40 0.40 82 1020.2
20240527063019 62 46 0.0 0.0 0.00 0.40 0.40 82 1020.3
20240527061515 61 34 0.0 0.0 0.00 0.40 0.40 86 1020.3
20240527060016 60 24 0.0 0.0 0.00 0.40 0.40 86 1020.3
20240527054515 58 34 0.0 0.9 0.00 0.40 0.40 87 1020.3
20240527053015 57 9 0.0 0.0 0.00 0.40 0.40 89 1020.1
20240527051517 57 53 0.0 0.0 0.00 0.40 0.40 90 1020.2
20240527050012 56 344 0.0 0.0 0.00 0.40 0.40 91 1020.2
20240527044511 56 11 0.0 0.0 0.00 0.40 0.40 92 1020.2
20240527043011 55 55 0.0 0.0 0.00 0.40 0.40 94 1020.1
20240527041508 54 60 0.0 0.0 0.00 0.40 0.40 95 1020.1
20240527040007 53 79 0.0 0.0 0.00 0.40 0.40 95 1020.0
20240527034507 52 78 0.0 0.0 0.00 0.40 0.40 95 1020.1
20240527033018 52 79 0.0 0.0 0.01 0.40 0.40 95 1020.0
20240527030005 51 79 0.0 0.0 0.01 0.40 0.40 95 1020.1
20240527024503 52 79 0.0 0.0 0.01 0.40 0.40 95 1020.0
20240527023004 52 79 0.0 0.0 0.00 0.39 0.39 95 1019.9
20240527021613 52 79 0.0 0.0 0.00 0.39 0.39 94 1019.8
20240527020059 52 79 0.0 0.0 0.00 0.39 0.39 95 1019.9
20240527014555 52 79 0.0 0.0 0.00 0.39 0.39 94 1019.9
20240527013055 52 79 0.0 0.0 0.00 0.39 0.39 94 1020.0
20240527011553 53 79 0.0 0.0 0.00 0.39 0.39 94 1020.1
20240527010059 53 79 0.0 0.0 0.00 0.39 0.39 94 1020.1
20240527004552 53 79 0.0 0.0 0.00 0.39 0.39 94 1020.0
20240527003103 53 79 0.0 0.0 0.00 0.39 0.39 94 1020.1
20240527001521 53 82 0.0 0.0 0.00 0.39 0.39 94 1020.3
20240527000019 53 90 0.0 0.0 0.00 0.39 0.39 94 1020.4
20240526234513 54 128 0.0 0.0 0.00 0.39 0.39 94 1020.5
20240526233012 54 125 0.0 0.0 0.00 0.39 0.39 93 1020.6
20240526231512 54 119 0.0 0.0 0.00 0.39 0.39 93 1020.5
20240526230014 54 95 0.0 0.0 0.00 0.39 0.39 93 1020.6
20240526224508 54 103 0.0 0.0 0.00 0.39 0.39 93 1020.6
20240526223008 54 104 0.0 0.0 0.00 0.39 0.39 93 1020.6
20240526221510 54 86 0.0 0.0 0.00 0.39 0.39 93 1020.6
20240526220006 55 103 0.0 0.0 0.00 0.39 0.39 93 1020.6
20240526214503 55 84 0.0 0.0 0.00 0.39 0.39 93 1020.6
20240526213002 55 88 0.0 0.0 0.00 0.39 0.39 93 1020.7
20240526211504 55 74 0.0 0.0 0.00 0.39 0.39 93 1020.7
20240526210059 56 86 0.0 0.0 0.00 0.39 0.39 93 1020.8
20240526204602 56 91 0.0 0.0 0.00 0.39 0.39 92 1020.8
20240526203054 56 86 0.0 0.0 0.00 0.39 0.39 92 1020.8
20240526201554 56 86 0.0 0.0 0.00 0.39 0.39 92 1020.8
20240526200152 56 82 0.0 0.0 0.00 0.39 0.39 92 1020.7
20240526194547 57 92 0.0 1.7 0.00 0.39 0.39 92 1020.7